Regional Weather Roundup
Issued by NWS Wakefield, VA

Home | Current Version | Previous Version | Text Only | Print | Product List | Glossary Off
Versions: 1 2 3 4 5 6 7 8 9 10 11 12 13 14 15 16 17 18 19 20 21 22 23 24 25 26 27 28 29 30 31 32 33 34 35 36 37 38 39 40 41 42 43 44 45 46 47 48 49 50

000
ASUS41 KAKQ 160915
RWRAKQ

REGIONAL WEATHER ROUNDUP
NATIONAL WEATHER SERVICE WAKEFIELD VA
400 AM EST MON JAN 16 2017

Note: "fair" indicates few or no clouds below 12,000 feet with no
significant weather and/or obstructions to visibility. * = Denotes
station may not report precipitation (e.g., rain,snow,etc.),
thunder or fog.

VAZ042-051-052>054-056-161000-
NORTHERN VIRGINIA

CITY           SKY/WX    TMP DP  RH WIND       PRES   REMARKS
WASH NATIONAL  CLOUDY    39  27  62 NE3       30.45F
DULLES         CLOUDY    38  27  64 CALM      30.42F
FORT BELVOIR   CLOUDY    39  27  62 CALM      30.43F
QUANTICO       CLOUDY    40  30  67 CALM      30.45S
FREDERICKSBRG* CLOUDY    40  33  76 SE3       30.43S
STAFFORD*      CLOUDY    38  32  78 CALM      30.47S
WARRENTON      CLOUDY    39  26  59 CALM      30.42S
CULPEPER*      CLOUDY    40  28  62 CALM      30.44R
MANASSAS*      NOT AVBL
LEESBURG*      CLOUDY    36  30  80 MISG      30.42F
WINCHESTER     CLOUDY    34  27  75 CALM      30.39S
FRONT ROYAL*   NOT AVBL
LURAY*         CLOUDY    37  30  75 CALM      30.38S
$$

VAZ048-049-060>072-079>083-161000-
CENTRAL AND SOUTH CENTRAL VIRGINIA

CITY           SKY/WX    TMP DP  RH WIND       PRES   REMARKS
RICHMOND       LGT RAIN  39  38  96 E3        30.43S FOG
CHESTERFIELD*  CLOUDY    39  23  52 S5        30.44S
PETERSBURG*    DRIZZLE   37  36  93 CALM      30.44S
HANOVER        LGT RAIN  39  36  89 CALM      30.44S
TAPPAHANNOCK*  LGT RAIN  39  37  94 CALM      30.44S
QUINTON*       CLOUDY    38  37  97 E5        30.43S
CHARLOTTSVILLE LGT RAIN  39  35  86 CALM      30.40S
GORDONSVILLE*  CLOUDY    37  37  99 CALM      30.41S
ORANGE*        LGT RAIN  37  37 100 CALM      30.43S
LOUISA*        DRIZZLE   43  43 100 CALM      30.40S
BUMPASS*       CLOUDY    38  38 100 CALM      30.42R
FARMVILLE*     RAIN      40  40 100 CALM      30.41S
CREWE*         CLOUDY    38  38 100 CALM      30.42S
FORT PICKETT*  CLOUDY    38  35  87 CALM      30.42S
CHASE CITY*    CLOUDY    40  36  83 CALM      30.40S
CLARKSVILLE*   CLOUDY    43  32  65 E5        30.40S
SOUTH HILL*    CLOUDY    40  35  83 CALM      30.47S
LAWRENCEVILLE* CLOUDY    37  36  94 CALM      30.42S
EMPORIA*       LGT RAIN  36  34  93 N5        30.45S
$$

VAZ088>098-161000-
SOUTHEAST VIRGINIA

CITY           SKY/WX    TMP DP  RH WIND       PRES   REMARKS
NORFOLK        CLOUDY    41  35  79 NE7       30.43S
VIRGINIA BEACH CLOUDY    41  34  76 N6        30.43R
NORFOLK NAVAL  LGT RAIN  41  34  76 NE6       30.44F
WEST POINT*    CLOUDY    38  33  84 CALM      30.45S
SALUDA*        CLOUDY    38  34  85 CALM      30.43F
NEWPORT NEWS   LGT RAIN  40  34  79 CALM      30.43F
LANGLEY AFB    MIX PCPN  40  35  83 CALM      30.43S
FORT EUSTIS    LGT RAIN  39  32  75 CALM      30.41S
WILLIAMSBURG*  CLOUDY    39  36  87 CALM      30.44S
HR EXEC AP*    CLOUDY    39  36  87 CALM      30.42S
FRANKLIN*      DRIZZLE   37  34  89 NE3       30.44F
US460-WAKEFLD  LGT RAIN  38  35  89 CALM      30.43F
$$

VAZ020-022-025-037-045-161000-
WEST CENTRAL AND SOUTHWEST VIRGINIA

CITY           SKY/WX    TMP DP  RH WIND       PRES   REMARKS
STAUNTON*      CLOUDY    36  33  90 CALM      30.39S
WAYNESBORO*    CLOUDY    38  37  97 SE5       30.36F
HOT SPRINGS VA LGT RAIN  36  36 100 SE5       30.27F VSB 1/4
LYNCHBURG      LGT RAIN  40  38  93 CALM      30.41S FOG
DANVILLE       CLOUDY    44  34  67 E6        30.39S
SOUTH BOSTON*  CLOUDY    44  29  56 E5        30.41R
MARTINSVILLE   CLOUDY    44  37  78 CALM      30.40S
ROANOKE        CLOUDY    41  40  96 SE7       30.38F
BLACKSBURG     CLOUDY    42  42 100 E5        30.35S FOG
DUBLIN*        FOG       43  43 100 NE3       30.33S VSB 3/4
MARION*        FOG       49  48  97 NE3       30.32S VSB 1/4
HILLSVILLE*    FOG       43  43 100 S5        30.29F VSB 1/2
RICHLANDS*     FOG      N/A N/A N/A CALM      30.27F VSB 1/2
WISE*          FOG       50  50 100 CALM      30.28S VSB 1/4
ABINGDON*      FOG       56  56 100 CALM      30.27F VSB 1/4
$$

MDZ021>025-VAZ099-100-161000-
SOUTHERN MARYLAND AND THE DELMARVA PENINSULA

CITY           SKY/WX    TMP DP  RH WIND       PRES   REMARKS
PATUXENT RIVER CLOUDY    38  32  79 E5        30.44S
BAY BRIDGE APT CLOUDY    34  25  69 MISG      30.45F
LEONARDTOWN    CLOUDY    36  32  87 CALM      30.45S
DOVER          CLOUDY    30  29  93 CALM      30.44F
GEORGETOWN     PTCLDY    32  28  85 CALM      30.44F
EASTON         PTCLDY    32  27  80 CALM      30.49S
CAMBRIDGE      CLOUDY    34  28  80 CALM      30.44S
SALISBURY      PTCLDY    35  29  78 CALM      30.44F
OCEAN CITY     CLOUDY    35  32  88 N5        30.44F
WALLOPS ISLAND CLOUDY    38  31  76 N3        30.44F
ACCOMACK*      CLOUDY    39  34  81 CALM      30.43F
$$

NCZ012>017-030>032-161000-
NORTH CENTRAL AND EASTERN NORTH CAROLINA

CITY           SKY/WX    TMP DP  RH WIND       PRES   REMARKS
ROANOKE RAPIDS CLOUDY    41  30  65 NE6       30.42S
RALEIGH        CLOUDY    46  37  71 NE5       30.39R
ELIZABETH CITY CLOUDY    42  36  79 NE12      30.41S
AHOSKIE*         N/A     40  25  54 N6        30.43R
EDENTON*       NOT AVBL
CURRITUCK*     CLOUDY    42  38  84 N9        30.42S
KILL DEVIL HLS NOT AVBL
MANTEO         CLOUDY    45  37  74 NE10      30.39F
CAPE HATTERAS  CLOUDY    48  42  80 NE8G18    30.36F
TARBORO*       NOT AVBL
GOLDSBORO      CLOUDY    45  44  99 E8        30.37R
WASHINGTON     CLOUDY    41  36  81 NE6       30.39S
GREENVILLE     CLOUDY    43  32  65 NE5       30.39S
NEW BERN       CLOUDY    43  38  82 NE7       30.39S
WILMINGTON     CLOUDY    49  44  83 NE8       30.34S
$$

VAZ048-161000-
ELSEWHERE

CITY           SKY/WX    TMP DP  RH WIND       PRES   REMARKS
HARRISBURG PA  PTCLDY    22  18  85 CALM      30.43F
BALTIMORE      CLOUDY    34  24  67 E5        30.45S
ANNAPOLIS      CLOUDY    37  27  67 E3        30.45S
ANDREWS AFB    CLOUDY    36  26  68 E5        30.42F
PHILADELPHIA   CLEAR     28  19  69 NW3       30.47S
HENDERSON NC   CLOUDY    42  30  62 E7        30.39S
GREENSBORO     CLOUDY    46  41  82 E6        30.35F
ROCKY MOUNT    CLOUDY    45  26  47 NE7       30.40R
$$

VAZ100-161000-
MARINE

STATION/POSITION TIME  TEMP    WIND        PRES    WAVE   SWELL
                       AIR SEA DIR/SP/G            HT/PER HT/PER
                 (UTC) (F)     (DEG/KT/KT) (MB)    (FT/S) (FT/S)
CAPE MAY NJ      0848   31 40   50/  3/  4 1030.6F
LEWES DE         0842   36 41   40/  7/  8 1031.0F
OCEAN-CITY-INLET 0842   39 42   30/  4/  7 1031.1F
WACHAPREAGUE VA  0842   39 44   10/  2/  2 1030.6F
THOMAS POINT MD  0900   36 38   70/  5/  6   N/A
GOOSES REEF MD   0850   38      80/  6/  8 1031.5F
COVE POINT MD    0848   37     100/  5/  6 1031.5F
SOLOMONS ISLAND  0842   39 41   60/  5/  6   N/A
BISHOPS HEAD MD  0848   38 41   40/  3/  5 1030.9F
PINEY POINT MD   0848          100/  6/  6   N/A
POTOMAC MD       0850   39      70/  6/  8 1029.8F
CAMBRIDGE MD     0848   36 38   40/  4/  4 1030.4F
LEWISETTA VA     0842   40 42  100/  6/  7 1030.5F
RAPPAHANNOCK LGT 0848           30/  7/  7 1031.0F
STINGRAY PT      0850   39      80/  4/  6 1030.8F
YORK RVR RNG VA  0842   40      40/  6/  6 1029.9F
YORKTOWN VA      0842   40 42   40/  5/  5 1030.2F
JAMESTOWN VA     0850   39      80/  2/  2   N/A
DOMINION TERM VA 0842   41      50/  5/  6 1030.5S
KIPTOPEKE VA     0842      42   70/  3/  4   N/A
CHES BAY BRIDGE  0842   41 42   20/  9/ 10 1030.5R
CAPE HENRY VA    0842   41      10/  8/  9   N/A
WILLOUBY STN VA  0842   41      20/  7/  8 1031.3F
S CRANEY ISL VA  0842   41      40/  8/ 10 1030.4R
CAPE HENRY BUOY  0842      47                N/A     2/11   2/11
OFFSHORE WE BUOY 0851      49                N/A     3/11   2/11
64NM E OF VA BCH 0850   50 57   20/ 12/ 16 1028.9F   4/ 8   3/ 8
DUCK PIER NC     0842   44 44   10/ 11/ 13 1028.9F
44100 DUCK FRF   0805      46                N/A     4/ 6   2/11
44056 DUCK FRF   0830      44                N/A     3/ 7   2/11
OREGON INLET NC  0842   46 49   10/ 11/ 14 1029.0R
HATTERAS NC      0842   46 54   20/ 14/ 20 1027.5F
DIAMOND SHLS NC  0850   56 74   20/ 17/ 21 1027.3F   5/ 5   2/ 8
CAPE LOOKOUT NC  0800   45      20/ 13/ 15 1027.3F
$$



USA.gov is the U.S. government's official web portal to all federal, state and local government web resources and services.